Location: Bluff Heights
(33.7692°N, 118.1592°W)
Time: 19:28:45
(UTC+00:00)

Vanguard 1 Rocket - Pass Details

Date: 30 September 2021
Orbit: 650 x 4225 km, 34.3° (Epoch: 24 October)

Event Time Altitude Azimuth Distance (km) Brightness Sun altitude
Exits shadow 10:06:20 19° 163° (SSE) 4,850 10.9 -44.5°
Drops below altitude 10° 10:11:19 10° 153° (SSE) 6,053 11.5 -43.6°
Sets 10:18:01 0° 145° (SE) 7,635 12.1 -42.5°
